IRIDIUM 33 DEB, 34648

Orbit data source: Space-Track

IRIDIUM 33 DEB, 34648 is space debris in LEO originally from a launch on Sun, 14 Sep 1997 UTC launched from the Tyuratam Missile And Space Complex (TTMTR). The debris from Iridium 33, an American commercial communications satellite, has been tracked extensively since its accidental collision with the defunct Russian satellite Cosmos 2251 in 2009. This event, occurring at high speed in low Earth orbit (LEO), generated thousands of pieces of space debris, significantly increasing the risk of further collisions. The Iridium 33 debris cloud has impacted space traffic management and orbital debris mitigation strategies, making it a subject of ongoing study in space situational awareness.

Loading next visibility...
Identifier
34648, 1997-051JZ
Orbit
LEO
Country
Flag of USUS
Related business
Manufacturer
Unknown
Mission
Spacecraft
Bus & Motor
Unknown
Mass
Unknown
Launch date (UTC)
1997-09-14 (28 years ago)
Launch vehicle
Unknown
Launch site
Tyuratam Missile And Space Complex (TTMTR)
Object type
Payload
Rocket body
Debris
Shape & HBR
Unknown shape, 0.1 m
Radar Cross Section
Small (<0.1 m²)

Expand to show TLE details & history
Last TLE update: 18 hours ago

TLE from 18 hours ago
0 IRIDIUM 33 DEB
1 34648U 97051JZ  25350.51843572  .00011523  00000-0  54189-2 0  9998
2 34648  86.3905 280.4208 0181621 287.0786  71.0574 14.11615527850144
Epoch: 2025-12-16T12:26Z
TLE epoch observation values (Epoch: 2025-12-16T12:26:32.846Z)
Latitude
0.00003°
Longitude
8.38245°
Altitude
816.375 km
Speed
7.466 km/s
True Right ascension
18h 41m 40s
True Declination
0° 00' 00"
Sunlit
Object was in daylight at epoch
Visualization orbit readout
Latitude
Unknown
Longitude
Unknown
Altitude
Unknown
Speed
Unknown
Apparent Right ascension
Unknown
Apparent Declination
Unknown
Sunlit
N/A
Visualization observer readout
Local Sidereal Time
04:57:25
Azimuth
Unknown
Elevation
Unknown
Doppler factor
Unknown
Orbital elements
Apogee altitude
982.137 km
Perigee altitude
719.55 km
Semi-major axis
7,228.981 km
Eccentricity
0.01816
Inclination
86.3905°
RAAN
280.4208°
Arg. of periapsis
287.0786°
True anomaly
73.04013°
Mean anomaly
71.0574°
Eccentric anomaly
72.04735°
Mean motion
3.53124 °/min
Orbital period
101.95 mins
BSTAR
0.0054189

Documentation

Showing up to 5 results
|